Estación de Curicó

Ultimos registro cada 15 minutos 31
Estación Fecha / Hora Temperatura Humedad Lluvia Velocidad Dirección Radiación Presion
31 Curicó 05-05-2026 07:30 10,2 96,6 0 0,7 62 0,6 987,4
30 Curicó 05-05-2026 07:15 10,1 97,1 0 0,3 44 0,6 988,1
29 Curicó 05-05-2026 07:00 9,8 97,3 0 0,3 45 0,6 988,1
28 Curicó 05-05-2026 06:45 9,8 97,2 0 0,3 34 0,6 988,9
27 Curicó 05-05-2026 06:30 9,7 97,3 0 0,3 59 0,6 989
26 Curicó 05-05-2026 06:15 9,5 97,3 0 0,3 27 0,6 988,9
25 Curicó 05-05-2026 06:00 9,4 97,3 0 0,3 257 0,6 989,3
24 Curicó 05-05-2026 05:45 9,2 97,2 0 0 4 0,6 988,8
23 Curicó 05-05-2026 05:30 8,9 97,2 0 0 0 0,6 988,8
22 Curicó 05-05-2026 05:15 8,6 97,2 0 0 0 0,6 989
21 Curicó 05-05-2026 05:00 8,6 97,1 0 0 49 0,6 989,3
20 Curicó 05-05-2026 04:45 8,7 96,9 0 0 77 0,6 988,9
19 Curicó 05-05-2026 04:30 8,6 96,9 0 0 88 0,6 989,4
18 Curicó 05-05-2026 04:15 8,5 97 0 0 101 0,6 988,5
17 Curicó 05-05-2026 04:00 8,4 96,8 0 0 136 0,6 988
16 Curicó 05-05-2026 03:45 8,2 96,8 0 0 136 0,6 988,7
15 Curicó 05-05-2026 03:30 8,1 96,8 0 0 136 0,6 988,3
14 Curicó 05-05-2026 03:15 8 96,5 0 0 136 0,6 988,7
13 Curicó 05-05-2026 03:00 8 96,5 0 0 136 0,6 988,7
12 Curicó 05-05-2026 02:45 8 96,5 0 0 136 0,6 988,7
11 Curicó 05-05-2026 02:30 8,1 96,4 0 0 136 0,6 989,1
10 Curicó 05-05-2026 02:15 8,1 96,3 0 0 136 0,6 989,2
9 Curicó 05-05-2026 02:00 7,8 96,3 0 0 136 0,6 988,9
8 Curicó 05-05-2026 01:45 7,8 96,1 0 0 136 0,6 989
7 Curicó 05-05-2026 01:30 7,6 96,3 0 0 136 0,6 989,2
6 Curicó 05-05-2026 01:15 7,2 96 0 0 136 0,6 989,3
5 Curicó 05-05-2026 01:00 6,6 96,1 0 0 136 0,6 989,4
4 Curicó 05-05-2026 00:45 6,2 95,8 0 0 136 0,6 989,4
3 Curicó 05-05-2026 00:30 6,4 95,3 0 0 136 0,6 989,5
2 Curicó 05-05-2026 00:15 7,1 95,6 0 0 136 0,6 989,4
1 Curicó 05-05-2026 00:00 7,1 95,3 0 0 136 0,6 989,6